Tracking 28052 objects as of 23-Sep-2023
HD Live streaming from Space Station
objects crossing your sky now

COSMOS 1249 COOLANT

Track COSMOS 1249 COOLANT now!
10-day predictions


NORAD ID: 26508
Int'l Code: 1981-021K
Perigee: 889.3 km
Apogee: 971.7 km
Inclination: 65.0 °
Period: 103.5 minutes
Semi major axis: 7301 km
RCS: 0.0061 m2 (small)
Launch date: March 5, 1981
Source: Commonwealth of Independent States (former USSR) (CIS)
Launch site: TYURATAM MISSILE AND SPACE COMPLEX (TTMTR)

Note: This is SATELLITE DEBRIS
Your satellite tracking list
Your tracking list is empty




NASA's NSSDC Master Catalog

Two Line Element Set (TLE):
1 26508U 81021K   23265.83197170  .00000308  00000-0  31044-3 0  9993
2 26508  64.9674  45.0379 0056449 217.3743 218.8620 13.91511849519714
Source of the keplerian elements: AFSPC